GW0758 Weather Reports


Display with metric or nautical units.
time (UTC)temp
F
wind
direction
speed
MPH
gust
MPH
rain 1hr
in
rain 24hr
in
rain mn
in
humidity
%
barometer
mb
20260503183041 59 239 10.0 18.0 0.00 0.00 0.00 73 1014.6
20260503181541 59 292 11.0 20.0 0.00 0.00 0.00 73 1014.6
20260503180046 58 243 8.0 15.0 0.00 0.00 0.00 74 1014.6
20260503174549 57 259 9.0 19.0 0.00 0.00 0.00 78 1014.6
20260503173051 56 239 5.0 20.0 0.00 0.00 0.00 84 1014.6
20260503171543 56 219 8.0 17.0 0.00 0.00 0.00 81 1014.5
20260503081543 54 280 6.0 12.0 0.00 0.00 0.00 82 1013.2
20260503071549 54 265 5.0 12.0 0.00 0.00 0.00 83 1013.3
20260503060107 54 279 5.0 15.0 0.00 0.00 0.00 83 1013.5
20260503054605 54 277 6.0 14.0 0.00 0.00 0.00 83 1013.7
20260503053040 54 246 7.0 13.0 0.00 0.00 0.00 83 1013.7
20260503051539 54 284 6.0 14.0 0.00 0.00 0.00 82 1013.9
20260503050046 54 273 5.0 13.0 0.00 0.00 0.00 82 1013.7
20260503044545 54 300 5.0 16.0 0.00 0.00 0.00 82 1013.7
20260503043048 54 294 7.0 16.0 0.00 0.00 0.00 82 1013.6
20260503041543 54 250 9.0 16.0 0.00 0.00 0.00 82 1013.4
20260503040053 54 248 9.0 15.0 0.00 0.00 0.00 82 1013.4
20260503034549 54 275 11.0 18.0 0.00 0.00 0.00 81 1013.4
20260503033049 54 279 11.0 21.0 0.00 0.00 0.00 82 1013.3
20260503031544 54 281 11.0 18.0 0.00 0.00 0.00 82 1013.2
20260503030041 54 292 9.0 19.0 0.00 0.00 0.00 82 1012.9
20260503024550 55 288 11.0 17.0 0.00 0.00 0.00 81 1012.9
20260503023055 55 302 8.0 17.0 0.00 0.00 0.00 80 1012.8
20260503021550 55 314 8.0 16.0 0.00 0.00 0.00 80 1012.9
20260503020049 56 269 12.0 20.0 0.00 0.00 0.00 79 1013.0
20260503014544 56 307 12.0 20.0 0.00 0.00 0.00 77 1012.9
20260503013041 56 306 9.0 20.0 0.00 0.00 0.00 77 1013.1
20260503011546 57 325 9.0 18.0 0.00 0.00 0.00 76 1013.1
20260503010045 57 284 9.0 20.0 0.00 0.00 0.00 76 1013.2
20260503004557 57 255 9.0 18.0 0.00 0.00 0.00 75 1013.2
20260503003100 58 268 10.0 17.0 0.00 0.00 0.00 72 1013.3
20260503001601 58 234 13.0 20.0 0.00 0.00 0.00 72 1013.3
20260503000041 59 288 10.0 19.0 0.00 0.00 0.00 73 1013.3
20260502234539 59 304 9.0 19.0 0.00 0.00 0.00 71 1013.4
20260502233048 60 292 12.0 18.0 0.00 0.00 0.00 71 1013.6
20260502231545 60 257 12.0 25.0 0.00 0.00 0.00 71 1013.7
20260502230045 59 301 10.0 23.0 0.00 0.00 0.00 72 1013.9
20260502224541 59 250 10.0 24.0 0.00 0.00 0.00 71 1014.0
20260502223048 59 233 9.0 20.0 0.00 0.00 0.00 73 1014.3
20260502221540 59 300 14.0 27.0 0.00 0.00 0.00 72 1014.4
20260502220038 59 250 11.0 27.0 0.00 0.00 0.00 71 1014.5
20260502214544 59 286 10.0 20.0 0.00 0.00 0.00 72 1014.6
20260502213058 58 267 12.0 22.0 0.00 0.00 0.00 73 1014.6
20260502211543 58 310 10.0 18.0 0.00 0.00 0.00 75 1014.9
20260502210042 57 344 10.0 22.0 0.00 0.00 0.00 77 1015.2
20260502204542 57 255 9.0 19.0 0.00 0.00 0.00 77 1015.3
20260502203043 57 236 9.0 18.0 0.00 0.00 0.00 78 1015.5
20260502201543 57 292 10.0 17.0 0.00 0.00 0.00 79 1015.6
20260502200104 57 229 6.0 18.0 0.00 0.00 0.00 81 1015.7
20260502194602 56 178 6.0 19.0 0.00 0.00 0.00 82 1015.6
20260502193039 57 253 7.0 17.0 0.00 0.00 0.00 81 1015.7
20260502191538 56 282 7.0 16.0 0.00 0.00 0.00 81 1015.6
20260502190037 55 226 7.0 14.0 0.00 0.00 0.00 83 1015.7
20260502184545 55 261 5.0 15.0 0.00 0.00 0.00 85 1015.7